Location: Middlebury
(44.0153°N, 73.1678°W)
Time: 04:47:20
(UTC-04:00)

ISS - Pass Details

Date: 14 April 2016
Orbit: 414 x 420 km, 51.6° (Epoch: 02 July)

Event Time Altitude Azimuth Distance (km) Brightness Sun altitude
Rises 20:35:00 0° 251° (WSW) 2,380 0.8 -10.8°
Reaches altitude 10° 20:37:09 10° 257° (WSW) 1,501 -0.1 -11.1°
Maximum altitude 20:40:25 50° 334° (NNW) 535 -2.9 -11.6°
Drops below altitude 10° 20:43:40 10° 52° (NE) 1,491 -1.2 -12.2°
Enters shadow 20:44:52 - 56° (NE) 1,973 -0.6 -12.4°
